When you browse on this site, cookies collect data to enhance your experience and personalize the content and advertising you see.
Visit our Privacy Policy to learn more. By continuing to use the site, you agree to this use of cookies and data.
  • In Schweiz
  • Länderverzeichnis
  • Für 7 Tage
  • Wassertemperatur
  • Satellitenkarten
  • Wetterkarte
  • Widgets
  • user-avatar
    Anmelden

    Stündliche Wetter Xiuyan

    Heute, 26 Mai, Sonntag

    Zeit Temperatur Niederschläge Wind Luftdruck Luftfeuchtigkeit
    00:00 +17°C° 0.1 mm 3 m/S 749 mmHg 93%
    01:00 +17°C° 0.1 mm 3 m/S 749 mmHg 94%
    02:00 +17°C° 0 mm 3 m/S 749 mmHg 93%
    03:00 +16°C° 0 mm 3 m/S 749 mmHg 93%
    04:00 +16°C° 0 mm 3 m/S 749 mmHg 93%
    05:00 +16°C° 0 mm 3 m/S 749 mmHg 93%
    06:00 +16°C° 0.1 mm 3 m/S 749 mmHg 93%
    07:00 +16°C° 0.1 mm 3 m/S 749 mmHg 93%
    08:00 +17°C° 0 mm 2 m/S 749 mmHg 93%
    09:00 +17°C° 0.1 mm 2 m/S 749 mmHg 92%
    10:00 +17°C° 0.1 mm 3 m/S 749 mmHg 91%
    11:00 +18°C° 0.1 mm 4 m/S 749 mmHg 90%
    12:00 +18°C° 0.2 mm 4 m/S 748 mmHg 90%
    13:00 +18°C° 0.2 mm 4 m/S 748 mmHg 90%
    14:00 +18°C° 0 mm 3 m/S 747 mmHg 91%
    15:00 +18°C° 0.1 mm 4 m/S 747 mmHg 89%
    16:00 +19°C° 0.1 mm 6 m/S 746 mmHg 87%
    17:00 +20°C° 0.1 mm 7 m/S 746 mmHg 85%
    18:00 +18°C° 0 mm 7 m/S 746 mmHg 87%
    19:00 +17°C° 0 mm 7 m/S 746 mmHg 89%
    20:00 +16°C° 0 mm 7 m/S 746 mmHg 92%
    21:00 +16°C° 0.4 mm 7 m/S 745 mmHg 92%
    22:00 +16°C° 0.4 mm 7 m/S 745 mmHg 93%
    23:00 +16°C° 0.4 mm 6 m/S 745 mmHg 94%

    Morgen, 27 Mai, Montag

    Zeit Temperatur Niederschläge Wind Luftdruck Luftfeuchtigkeit
    00:00 +16°C° 2.2 mm 5 m/S 745 mmHg 95%
    01:00 +16°C° 2.2 mm 3 m/S 745 mmHg 96%
    02:00 +16°C° 2.2 mm 1 m/S 745 mmHg 97%
    03:00 +16°C° 3.6 mm 2 m/S 745 mmHg 96%
    04:00 +14°C° 3.6 mm 3 m/S 745 mmHg 95%
    05:00 +14°C° 3.6 mm 4 m/S 745 mmHg 94%
    06:00 +14°C° 0.2 mm 5 m/S 745 mmHg 90%
    07:00 +12°C° 0.2 mm 7 m/S 745 mmHg 85%
    08:00 +12°C° 0.2 mm 9 m/S 746 mmHg 81%
    09:00 +13°C° 0 mm 10 m/S 746 mmHg 72%
    10:00 +16°C° 0 mm 11 m/S 746 mmHg 64%
    11:00 +17°C° 0 mm 12 m/S 746 mmHg 56%
    12:00 +18°C° 0 mm 12 m/S 746 mmHg 53%
    13:00 +19°C° 0 mm 11 m/S 747 mmHg 51%
    14:00 +21°C° 0 mm 11 m/S 747 mmHg 48%
    15:00 +19°C° 0 mm 9 m/S 747 mmHg 50%
    16:00 +20°C° 0 mm 8 m/S 747 mmHg 52%
    17:00 +20°C° 0 mm 7 m/S 748 mmHg 54%
    18:00 +17°C° 0 mm 6 m/S 748 mmHg 55%
    19:00 +17°C° 0 mm 4 m/S 748 mmHg 56%
    20:00 +14°C° 0 mm 3 m/S 749 mmHg 57%
    21:00 +13°C° 0 mm 3 m/S 749 mmHg 52%
    22:00 +13°C° 0 mm 3 m/S 750 mmHg 48%
    23:00 +12°C° 0 mm 3 m/S 750 mmHg 43%

    übermorgen, 28 Mai, Dienstag

    Zeit Temperatur Niederschläge Wind Luftdruck Luftfeuchtigkeit
    00:00 +13°C° 0 mm 2 m/S 750 mmHg 45%
    01:00 +12°C° 0 mm 2 m/S 750 mmHg 46%
    02:00 +12°C° 0 mm 2 m/S 750 mmHg 48%
    03:00 +10°C° 0 mm 2 m/S 750 mmHg 50%
    04:00 +10°C° 0 mm 2 m/S 751 mmHg 53%
    05:00 +10°C° 0 mm 2 m/S 751 mmHg 55%
    06:00 +14°C° 0 mm 2 m/S 751 mmHg 51%
    07:00 +17°C° 0 mm 2 m/S 751 mmHg 47%
    08:00 +20°C° 0 mm 3 m/S 751 mmHg 43%
    09:00 +21°C° 0 mm 4 m/S 750 mmHg 40%
    10:00 +22°C° 0 mm 5 m/S 750 mmHg 37%
    11:00 +24°C° 0 mm 6 m/S 750 mmHg 35%
    12:00 +24°C° 0 mm 7 m/S 749 mmHg 34%
    13:00 +26°C° 0 mm 7 m/S 749 mmHg 33%
    14:00 +26°C° 0 mm 8 m/S 748 mmHg 31%
    15:00 +26°C° 0 mm 6 m/S 748 mmHg 37%
    16:00 +25°C° 0 mm 4 m/S 748 mmHg 42%
    17:00 +25°C° 0 mm 3 m/S 748 mmHg 48%
    18:00 +23°C° 0 mm 2 m/S 748 mmHg 49%
    19:00 +19°C° 0 mm 2 m/S 748 mmHg 50%
    20:00 +16°C° 0 mm 2 m/S 748 mmHg 52%
    21:00 +16°C° 0 mm 2 m/S 748 mmHg 50%
    22:00 +16°C° 0 mm 2 m/S 748 mmHg 48%
    23:00 +15°C° 0 mm 2 m/S 749 mmHg 47%

    29 Mai, Mittwoch

    Zeit Temperatur Niederschläge Wind Luftdruck Luftfeuchtigkeit
    00:00 +15°C° 0 mm 2 m/S 749 mmHg 45%
    01:00 +15°C° 0 mm 2 m/S 748 mmHg 43%
    02:00 +15°C° 0 mm 2 m/S 748 mmHg 41%
    03:00 +15°C° 0 mm 2 m/S 748 mmHg 43%
    04:00 +14°C° 0 mm 1 m/S 748 mmHg 46%
    05:00 +14°C° 0 mm 1 m/S 748 mmHg 48%
    06:00 +18°C° 0 mm 1 m/S 748 mmHg 45%
    07:00 +21°C° 0 mm 1 m/S 748 mmHg 42%
    08:00 +24°C° 0 mm 1 m/S 748 mmHg 39%
    09:00 +26°C° 0 mm 2 m/S 748 mmHg 36%
    10:00 +27°C° 0 mm 3 m/S 748 mmHg 32%
    11:00 +29°C° 0 mm 4 m/S 748 mmHg 29%
    12:00 +29°C° 0 mm 4 m/S 748 mmHg 28%
    13:00 +30°C° 0 mm 4 m/S 747 mmHg 27%
    14:00 +30°C° 0 mm 3 m/S 747 mmHg 26%
    15:00 +29°C° 0 mm 3 m/S 746 mmHg 31%
    16:00 +29°C° 0 mm 3 m/S 746 mmHg 35%
    17:00 +28°C° 0 mm 2 m/S 746 mmHg 40%
    18:00 +26°C° 0 mm 2 m/S 745 mmHg 44%
    19:00 +23°C° 0 mm 2 m/S 745 mmHg 47%
    20:00 +19°C° 0 mm 2 m/S 745 mmHg 51%
    21:00 +18°C° 0 mm 2 m/S 745 mmHg 52%
    22:00 +18°C° 0 mm 2 m/S 744 mmHg 54%
    23:00 +17°C° 0 mm 2 m/S 744 mmHg 55%

    30 Mai, Donnerstag

    Zeit Temperatur Niederschläge Wind Luftdruck Luftfeuchtigkeit
    00:00 +17°C° 0 mm 2 m/S 744 mmHg 57%
    01:00 +16°C° 0 mm 1 m/S 744 mmHg 59%
    02:00 +16°C° 0 mm 1 m/S 744 mmHg 61%
    03:00 +16°C° 0 mm 1 m/S 744 mmHg 61%
    04:00 +18°C° 0 mm 1 m/S 745 mmHg 60%
    05:00 +18°C° 0 mm 1 m/S 745 mmHg 60%
    06:00 +18°C° 0 mm 2 m/S 745 mmHg 58%
    07:00 +19°C° 0 mm 2 m/S 746 mmHg 56%
    08:00 +20°C° 0 mm 2 m/S 746 mmHg 54%
    09:00 +21°C° 0 mm 3 m/S 746 mmHg 50%
    10:00 +22°C° 0 mm 3 m/S 746 mmHg 45%
    11:00 +23°C° 0 mm 4 m/S 746 mmHg 41%
    12:00 +21°C° 0.1 mm 4 m/S 746 mmHg 47%
    13:00 +20°C° 0.1 mm 3 m/S 746 mmHg 53%
    14:00 +18°C° 0.1 mm 3 m/S 745 mmHg 59%
    15:00 +18°C° 0.8 mm 2 m/S 745 mmHg 66%
    16:00 +17°C° 0.8 mm 2 m/S 745 mmHg 74%
    17:00 +16°C° 0.8 mm 1 m/S 745 mmHg 81%
    18:00 +15°C° 0 mm 1 m/S 745 mmHg 81%
    19:00 +14°C° 0 mm 1 m/S 745 mmHg 81%
    20:00 +12°C° 0 mm 0 m/S 746 mmHg 81%
    21:00 +13°C° 0 mm 1 m/S 746 mmHg 80%
    22:00 +13°C° 0 mm 1 m/S 746 mmHg 78%
    23:00 +12°C° 0 mm 1 m/S 746 mmHg 76%

    31 Mai, Freitag

    Zeit Temperatur Niederschläge Wind Luftdruck Luftfeuchtigkeit
    00:00 +12°C° 0 mm 1 m/S 746 mmHg 75%
    01:00 +12°C° 0 mm 1 m/S 746 mmHg 73%
    02:00 +10°C° 0 mm 2 m/S 746 mmHg 72%
    03:00 +10°C° 0 mm 2 m/S 747 mmHg 72%
    04:00 +11°C° 0 mm 1 m/S 747 mmHg 72%
    05:00 +11°C° 0 mm 1 m/S 747 mmHg 72%
    06:00 +14°C° 0 mm 2 m/S 747 mmHg 65%
    07:00 +17°C° 0 mm 2 m/S 748 mmHg 59%
    08:00 +19°C° 0 mm 2 m/S 748 mmHg 52%
    09:00 +21°C° 0 mm 3 m/S 748 mmHg 49%
    10:00 +22°C° 0 mm 3 m/S 748 mmHg 45%
    11:00 +25°C° 0 mm 4 m/S 748 mmHg 41%
    12:00 +25°C° 0 mm 4 m/S 747 mmHg 40%
    13:00 +25°C° 0 mm 4 m/S 747 mmHg 38%
    14:00 +26°C° 0 mm 4 m/S 746 mmHg 37%
    15:00 +25°C° 0 mm 4 m/S 746 mmHg 41%
    16:00 +25°C° 0 mm 3 m/S 746 mmHg 44%
    17:00 +25°C° 0 mm 3 m/S 746 mmHg 48%
    18:00 +21°C° 0 mm 2 m/S 746 mmHg 49%
    19:00 +19°C° 0 mm 2 m/S 746 mmHg 51%
    20:00 +18°C° 0 mm 1 m/S 746 mmHg 53%
    21:00 +16°C° 0 mm 1 m/S 746 mmHg 50%
    22:00 +16°C° 0 mm 1 m/S 746 mmHg 48%
    23:00 +16°C° 0 mm 2 m/S 746 mmHg 45%
    Mehr zeigen